Погода в Теплом Ключе

Россия / Республика Саха (Якутия)     62°46′59″N   136°48′36″E
темп.,
°C
ветер,
м/с
пор.,
м/с
влажн.,
%
обл.,
%
осадки,
мм/ч
давл.,
гПа
погр.,
м
3 марта, ср
ср300:00−30ююв0199100 0.1 102119
03:00−30ю1199100 0.3 102119
06:00−31ююз11100100 0.1 102019
09:00−29ю1195100 0.3 1019168
12:00−28юз2288100 0.1 1018514
15:00−27юз2286100 0.3 1016587
18:00−29ю1199100 0.1 101719
21:00−30ю2298100 0.1 101619
4 марта, чт
чт400:00−30ю2298100 0.1 101623
03:00−30ю2298100 0.1 101526
06:00−31ю2298100 0.1 101525
09:00−29ю2394100 0.1 1015266
12:00−28юз2283100 0.1 1015632
15:00−28з2280100 0.1 1016763
18:00−31зсз33100100 0.1 101919
21:00−33з22100100 0.1 102019
5 марта, пт
пт500:00−36юз12100100 0.1 102119
03:00−37ююз2299100 0.1 102219
06:00−39ю2298100 0.0 102318
09:00−37ююз1295100 0.0 1024107
12:00−35юз2284100 0.0 1023341
15:00−33з2280100 0.0 1023473
18:00−36ююв2294100 0.0 102419
21:00−36ююв2396100 0.1 102538
6 марта, сб
сб600:00−36ююв3396100 0.1 102471
03:00−35юв2297100 0.1 102431
06:00−35юв1296100 0.1 102419
09:00−34ю1189100 0.1 1024197
12:00−34юз1168100 0.0 1022448
15:00−31зюз1178100 0.0 1022496
18:00−35юв1198100 0.0 102419
21:00−36юв11100100 0.0 102419
7 марта, вс
вс700:00−37вюв12100100 0.0 102419
03:00−39юв119996 0.0 102419
06:00−38юв229596 0.0 102419
09:00−35юв118787 0.0 102488
12:00−33з117244 0.0 1022367
15:00−31з117772 0.0 1022404
18:00−36в119892 0.0 102319
21:00−36в228983 0.0 102419